Location: *
(37.5724°S, 58.0067°E)
Time: 10:14:11
(UTC+00:00)

USA 229 DEB - Pass Details

Date: 01 December 2021
Orbit: 943 x 1269 km, 63.4° (Epoch: 14 January)

Event Time Altitude Azimuth Distance (km) Brightness Sun altitude
Rises 19:12:21 0° 287° (WNW) 4,199 6.8 -29.6°
Reaches altitude 10° 19:15:49 10° 274° (W) 3,207 6.2 -29.7°
Maximum altitude 19:21:57 25° 221° (SW) 2,214 5.8 -29.9°
Drops below altitude 10° 19:27:51 10° 168° (SSE) 3,055 6.9 -30.1°
Sets 19:31:05 0° 154° (SSE) 3,961 7.5 -30.2°
